Weather in Spokoynaya

Russia / Krasnodar Krai     44°14′41″N   41°23′32″E
temp.,
°C
wind,
m/s
gust,
m/s
humid.,
%
clouds,
%
prec.,
mm/h
press.,
hPa
HPBL,
m
11 may, tue
tue1100:00+2sw2289100 0.0 101918
03:00+2s3476100 0.0 101888
06:00+3s2470100 0.1 1017120
09:00+5s0165100 0.3 1016339
12:00+7ne2375100 0.6 1016564
15:00+8ene4675100 0.8 1016813
18:00+9ne3577100 0.0 1016542
21:00+5w1190100 0.0 101610
12 may, wed
wed1200:00+4ssw119283 0.0 101611
03:00+2ssw228825 0.0 101712
06:00+4ssw22745 0.0 101836
09:00+11ene22571 0.0 1016498
12:00+15ene45630 0.0 10141027
15:00+16ene55602 0.0 10141180
18:00+15e59733 0.0 1013559
21:00+9e11931 0.0 101418
13 may, thu
thu1300:00+8ssw22900 0.0 101316
03:00+8ssw32700 0.0 101317
06:00+9ssw33650 0.0 101428
09:00+18e11500 0.0 1013295
12:00+21ene34515 0.0 1012691
15:00+22e455588 0.0 1012842
18:00+20ene36776 0.0 1012268
21:00+14sse118956 0.0 101311
14 may, fri
fri1400:00+13s228877 0.0 101217
03:00+13s3365100 0.0 101229
06:00+13s33593 0.0 101333
09:00+23s23495 0.0 1011203
12:00+28ene12340 0.0 1011905
15:00+27ne34464 0.0 10101294
18:00+24ene36750 0.0 1011150
21:00+17sse22841 0.0 101211
15 may, sat
sat1500:00+16s33805 0.0 101126
03:00+14ssw33620 0.0 101220
06:00+15wsw22690 0.0 101422
09:00+21wnw23675 0.0 1014463
12:00+24n43600 0.0 1013901
15:00+23nnw5469100 0.0 10141257
18:00+19n2586100 0.2 1015239
21:00+16s119277 0.6 101511